This is the latest recevied weather packets stored in our database for station/object AI5BL. If no packets are shown the sender has not sent any weather packets the latest 10 day(s).
| Time | Temp. | Humidity | Pressure | Rain* | Wind** | Luminosity | Snow |
|---|---|---|---|---|---|---|---|
| 1777308166 | 29.44° C | 55% | 1018 hPa | 0 mm | - | 789 W/m² | - |
| 1777307862 | 29.44° C | 61% | 1017.9 hPa | 0 mm | - | 790 W/m² | - |
| 1777307560 | 30° C | 60% | 1018 hPa | 0 mm | - | 444 W/m² | - |
| 1777307256 | 30° C | 61% | 1017.9 hPa | 0 mm | - | 762 W/m² | - |
| 1777306954 | 30° C | 61% | 1017.9 hPa | 0 mm | - | 721 W/m² | - |
| 1777306651 | 29.44° C | 56% | 1017.8 hPa | 0 mm | - | 712 W/m² | - |
| 1777306347 | 29.44° C | 55% | 1017.8 hPa | 0 mm | - | 697 W/m² | - |
| 1777306041 | 29.44° C | 64% | 1018.1 hPa | 0 mm | - | 688 W/m² | - |
| 1777305739 | 28.89° C | 61% | 1017.9 hPa | 0 mm | - | 677 W/m² | - |
| 1777305435 | 28.89° C | 58% | 1017.7 hPa | 0 mm | - | 672 W/m² | - |
| 1777305129 | 28.89° C | 57% | 1017.6 hPa | 0 mm | - | 653 W/m² | - |
| 1777304829 | 28.33° C | 58% | 1017.7 hPa | 0 mm | - | 645 W/m² | - |
| 1777304527 | 28.89° C | 59% | 1017.7 hPa | 0 mm | - | 632 W/m² | - |
| 1777304224 | 28.33° C | 65% | 1017.8 hPa | 0 mm | - | 629 W/m² | - |
| 1777303921 | 28.33° C | 61% | 1017.8 hPa | 0 mm | - | 617 W/m² | - |
| 1777303618 | 28.33° C | 67% | 1017.7 hPa | 0 mm | - | 601 W/m² | - |
| 1777303316 | 28.33° C | 62% | 1017.7 hPa | 0 mm | - | 589 W/m² | - |
| 1777303013 | 27.22° C | 64% | 1017.9 hPa | 0 mm | - | 569 W/m² | - |
| 1777302710 | 27.78° C | 67% | 1017.8 hPa | 0 mm | - | 550 W/m² | - |
| 1777302409 | 27.22° C | 69% | 1017.9 hPa | 0 mm | - | 542 W/m² | - |
| 1777302107 | 27.22° C | 68% | 1017.9 hPa | 0 mm | - | 533 W/m² | - |
| 1777301804 | 26.67° C | 72% | 1018 hPa | 0 mm | - | 503 W/m² | - |
| 1777301501 | 27.22° C | 69% | 1017.9 hPa | 0 mm | - | 502 W/m² | - |
| 1777301197 | 26.11° C | 70% | 1017.9 hPa | 0 mm | - | 458 W/m² | - |
| 1777300894 | 26.11° C | 70% | 1018 hPa | 0 mm | - | 458 W/m² | - |
* Rain latest hour (hover to see other rain measurements)
** Current wind speed in m/s (hover to see current wind gust speed)